This is the latest recevied weather packets stored in our database for station/object N5KR. If no packets are shown the sender has not sent any weather packets the latest 10 day(s).
| Time | Temp. | Humidity | Pressure | Rain* | Wind** | Luminosity | Snow |
|---|---|---|---|---|---|---|---|
| 1777827305 | 25.56° C | 42% | 1022.1 hPa | 0 mm | - | 804 W/m² | - |
| 1777824305 | 24.44° C | 44% | 1021.9 hPa | 0 mm | - | 723 W/m² | - |
| 1777820104 | 22.78° C | 50% | 1021.7 hPa | 0 mm | - | 541 W/m² | - |
| 1777818005 | 21.11° C | 52% | 1021.7 hPa | 0 mm | - | 435 W/m² | - |
| 1777813505 | 17.22° C | 63% | 1021.4 hPa | 0 mm | - | 154 W/m² | - |
| 1777812904 | 16.67° C | 65% | 1021.3 hPa | 0 mm | - | 119 W/m² | - |
| 1777810504 | 15° C | 69% | 1021 hPa | 0 mm | - | 17 W/m² | - |
| 1777810205 | 15° C | 69% | 1020.9 hPa | 0 mm | - | 14 W/m² | - |
| 1777808104 | 14.44° C | 71% | 1020.7 hPa | 0 mm | - | 0 W/m² | - |
| 1777807204 | 13.89° C | 72% | 1020.6 hPa | 0 mm | - | 0 W/m² | - |
| 1777806904 | 13.89° C | 72% | 1020.5 hPa | 0 mm | - | 0 W/m² | - |
| 1777806304 | 13.89° C | 71% | 1020.4 hPa | 0 mm | - | 0 W/m² | - |
| 1777804805 | 14.44° C | 69% | 1020.5 hPa | 0 mm | - | 0 W/m² | - |
| 1777804504 | 14.44° C | 69% | 1020.6 hPa | 0 mm | - | 0 W/m² | - |
| 1777799704 | 15° C | 65% | 1020.4 hPa | 0 mm | - | 0 W/m² | - |
| 1777794907 | 16.11° C | 60% | 1020.5 hPa | 0 mm | - | 0 W/m² | - |
| 1777792207 | 16.67° C | 58% | 1020.8 hPa | 0 mm | - | 0 W/m² | - |
| 1777790407 | 17.22° C | 55% | 1020.7 hPa | 0 mm | - | 0 W/m² | - |
| 1777789507 | 17.22° C | 56% | 1020.7 hPa | 0 mm | - | 0 W/m² | - |
| 1777783807 | 17.78° C | 52% | 1020.3 hPa | 0 mm | - | 0 W/m² | - |
| 1777783206 | 18.33° C | 51% | 1020.3 hPa | 0 mm | - | 0 W/m² | - |
| 1777781707 | 18.33° C | 50% | 1020.2 hPa | 0 mm | - | 0 W/m² | - |
| 1777780806 | 18.89° C | 50% | 1020.2 hPa | 0 mm | - | 0 W/m² | - |
| 1777777206 | 17.78° C | 56% | 1019.9 hPa | 0 mm | - | 0 W/m² | - |
| 1777776006 | 18.33° C | 55% | 1019.8 hPa | 0 mm | - | 0 W/m² | - |
* Rain latest hour (hover to see other rain measurements)
** Current wind speed in m/s (hover to see current wind gust speed)